User: anonymous   Login
Location: Eppenbrunn
(49.1158°N, 7.5601°E)
Time: 17:44:34
(UTC+00:00)
Language:

STARLINK-1270 - Orbit

View from above orbital plane
View from above orbital plane
View from above satellite
View from above satellite

Ground track
Ground track

The orbit data is extracted from the following two-line orbital elements,

1 45237U 20012BM  20196.58334491  .00016226  00000-0  11308-2 0  9993
2 45237  53.0002 272.7407 0001336  87.8311 276.8424 15.05561159 23368
Epoch (UTC): 14 July 2020 14:00:01
Eccentricity: 0.0001336
inclination: 53.0002°
perigee height: 549 km
apogee height: 551 km
right ascension of ascending node: 272.7407°
argument of perigee: 87.8311°
revolutions per day: 15.05561159
mean anomaly at epoch: 276.8424°
orbit number at epoch: 2336

The dashed part of the orbit path shows where the satellite is in the earth's shadow,  

DLR